This demonstration page uses our WeatherBlox Daily Observations layout. Learn more.

Left ArrowRight Arrow

Hourly Observations for October 4, 2021

Temp ( °F °C ) Dew Point ( °F °C ) Humidity (%) Winds ( mph kmh ) Pressure ( in mb ) Visibility ( mi km ) Precip ( " mm )
12:15 am 00:15 Clear 56 13.6 44 6.7 63 63 S 3 6 30.05 1018 10 16 0.00 0.00
12:35 am 00:35 Clear 56 13.2 44 6.6 65 65 SSW 5 7 30.05 1018 10 16 0.00 0.00
12:55 am 00:55 Clear 56 13.3 44 6.7 65 65 SW 6 9 30.05 1018 10 16 0.00 0.00
1:15 am 01:15 Clear 55 13 45 7 67 67 SSW 6 9 30.06 1018 10 16 0.00 0.00
1:35 am 01:35 Clear 56 13.4 45 7.1 66 66 SW 6 9 30.05 1018 10 16 0.00 0.00
1:55 am 01:55 Clear 56 13.3 45 7.3 67 67 SW 5 7 30.05 1018 10 16 0.00 0.00
2:15 am 02:15 Clear 56 13.6 44 6.9 64 64 SW 5 7 30.05 1018 10 16 0.00 0.00
2:35 am 02:35 Clear 57 13.8 44 6.7 62 62 SW 6 9 30.05 1018 10 16 0.00 0.00
2:55 am 02:55 Clear 58 14.3 44 6.5 60 60 SW 6 9 30.05 1017 10 16 0.00 0.00
3:15 am 03:15 Clear 58 14.5 44 6.5 59 59 SW 7 11 30.04 1017 10 16 0.00 0.00
3:35 am 03:35 Clear 57 14.1 44 6.5 60 60 SW 6 9 30.05 1018 10 16 0.00 0.00
3:55 am 03:55 Clear 59 15 43 6.1 56 56 SW 6 9 30.04 1017 10 16 0.00 0.00
4:15 am 04:15 Clear 59 15 42 5.8 54 54 WSW 7 11 30.04 1017 10 16 0.00 0.00
4:35 am 04:35 Clear 59 15 42 5.8 54 54 WSW 6 9 30.03 1017 10 16 0.00 0.00
4:55 am 04:55 Clear 60 15.5 42 5.8 53 53 WSW 8 13 30.02 1017 10 16 0.00 0.00
5:15 am 05:15 Clear 60 15.6 42 5.7 52 52 WSW 6 9 30.03 1017 10 16 0.00 0.00
5:35 am 05:35 Clear 60 15.3 42 5.8 53 53 WSW 7 11 30.04 1017 10 16 0.00 0.00
5:55 am 05:55 Clear 60 15.6 42 5.6 52 52 WSW 5 7 30.03 1017 10 16 0.00 0.00
6:15 am 06:15 Clear 58 14.5 42 5.6 55 55 W 3 6 30.04 1017 10 16 0.00 0.00
6:35 am 06:35 Clear 58 14.3 42 5.7 57 57 W 3 6 30.05 1017 10 16 0.00 0.00
6:55 am 06:55 Clear 54 12.2 42 5.8 65 65 NW 3 6 30.07 1018 10 16 0.00 0.00
7:15 am 07:15 Clear 50 10.2 42 5.7 74 74 Calm 30.09 1019 10 16 0.00 0.00
7:35 am 07:35 Clear 48 8.9 43 6 82 82 Calm 30.10 1019 10 16 0.00 0.00
7:55 am 07:55 Sunny 50 10.1 44 6.5 79 79 NW 3 6 30.09 1019 10 16 0.00 0.00
8:15 am 08:15 Sunny 51 10.5 44 6.8 78 78 Calm 30.10 1019 10 16 0.00 0.00
8:35 am 08:35 Sunny 54 12 44 6.9 71 71 N 3 6 30.10 1019 10 16 0.00 0.00
8:55 am 08:55 Sunny 55 12.9 47 8.4 74 74 N 3 6 30.10 1019 10 16 0.00 0.00
9:15 am 09:15 Sunny 58 14.7 46 7.7 63 63 N 3 6 30.09 1019 10 16 0.00 0.00
9:35 am 09:35 Sunny 60 15.6 47 8.1 61 61 N 7 11 30.08 1019 10 16 0.00 0.00
9:55 am 09:55 Sunny 62 16.4 48 8.9 61 61 NNE 5 7 30.09 1019 10 16 0.00 0.00
10:15 am 10:15 Sunny 64 17.6 47 8.1 54 54 N 5 7 30.08 1019 10 16 0.00 0.00
10:35 am 10:35 Sunny 66 18.9 45 7.2 47 47 N 7 11 30.08 1018 10 16 0.00 0.00
10:55 am 10:55 Sunny 68 20.1 45 7.3 44 44 NNE 7 11 30.07 1018 10 16 0.00 0.00
11:15 am 11:15 Sunny 70 20.9 46 7.6 42 42 NE 9 15 30.06 1018 10 16 0.00 0.00
11:35 am 11:35 Sunny 72 22.1 47 8.3 41 41 NNE 6 9 30.05 1018 10 16 0.00 0.00
11:55 am 11:55 Sunny 73 23 46 7.7 38 38 NNE 6 9 30.04 1017 10 16 0.00 0.00
12:15 pm 12:15 Sunny 75 24 46 7.9 36 36 NNE 7 11 30.03 1017 10 16 0.00 0.00
12:35 pm 12:35 Sunny 76 24.7 46 7.8 34 34 NNE 7 11 30.03 1017 10 16 0.00 0.00
12:55 pm 12:55 Sunny 78 25.3 45 7.1 31 31 NNE 6 9 30.02 1017 10 16 0.00 0.00
1:15 pm 13:15 Sunny 79 26.1 44 6.7 29 29 NNE 9 15 30.01 1016 10 16 0.00 0.00
1:35 pm 13:35 Sunny 79 26.3 44 6.6 29 29 ENE 7 11 30.01 1016 7 11 0.00 0.00
1:55 pm 13:55 Hazy 80 26.5 43 6 27 27 ENE 7 11 29.99 1016 4 6 0.00 0.00
2:15 pm 14:15 Sunny 81 27 42 5.5 25 25 NE 7 11 29.99 1016 10 16 0.00 0.00
2:35 pm 14:35 Sunny 81 27 43 5.9 26 26 NE 5 7 29.98 1015 10 16 0.00 0.00
2:55 pm 14:55 Sunny 81 27.2 42 5.5 25 25 NNE 8 13 29.98 1015 10 16 0.00 0.00
3:15 pm 15:15 Hazy 81 27.2 41 4.9 24 24 Calm 29.97 1015 5 8 0.00 0.00
3:35 pm 15:35 Sunny 82 27.6 39 4 22 22 NE 12 19 29.97 1015 10 16 0.00 0.00
3:55 pm 15:55 Sunny 82 27.7 41 4.8 23 23 NE 9 15 29.96 1015 10 16 0.00 0.00
4:15 pm 16:15 Sunny 82 27.6 42 5.3 24 24 ENE 3 6 29.98 1015 10 16 0.00 0.00
4:35 pm 16:35 Sunny 82 27.5 40 4.6 23 23 NNE 8 13 29.97 1015 10 16 0.00 0.00
4:55 pm 16:55 Sunny 81 27.1 40 4.4 23 23 ENE 8 13 29.98 1015 10 16 0.00 0.00
5:15 pm 17:15 Sunny 80 26.9 38 3.6 22 22 NE 7 11 29.98 1015 10 16 0.00 0.00
5:35 pm 17:35 Sunny 80 26.6 39 3.9 23 23 ENE 9 15 29.98 1015 10 16 0.00 0.00
5:55 pm 17:55 Sunny 79 26.1 39 3.7 24 24 ENE 8 13 29.99 1015 10 16 0.00 0.00
6:15 pm 18:15 Sunny 77 25.2 40 4.5 26 26 ENE 7 11 30.00 1016 10 16 0.00 0.00
6:35 pm 18:35 Sunny 75 24.1 41 5.1 29 29 ENE 6 9 30.01 1016 10 16 0.00 0.00
6:55 pm 18:55 Sunny 73 23 42 5.3 32 32 ENE 6 9 30.02 1017 10 16 0.00 0.00
7:15 pm 19:15 Clear 68 20.2 44 6.4 41 41 ENE 6 9 30.05 1017 10 16 0.00 0.00
7:35 pm 19:35 Clear 68 20.1 41 5.2 38 38 ENE 6 9 30.05 1017 10 16 0.00 0.00
7:55 pm 19:55 Clear 64 17.8 44 6.5 48 48 ENE 7 11 30.07 1018 10 16 0.00 0.00
8:15 pm 20:15 Clear 63 17 43 6.2 49 49 ENE 7 11 30.08 1019 10 16 0.00 0.00
8:35 pm 20:35 Clear 62 16.5 43 6.2 51 51 NE 6 9 30.10 1019 10 16 0.00 0.00
8:55 pm 20:55 Clear 60 15.7 44 6.5 55 55 ENE 9 15 30.10 1019 10 16 0.00 0.00
9:15 pm 21:15 Clear 60 15.6 43 6.2 54 54 ENE 6 9 30.11 1020 10 16 0.00 0.00
9:35 pm 21:35 Clear 60 15.7 43 6.1 53 53 ENE 5 7 30.11 1020 10 16 0.00 0.00
9:55 pm 21:55 Clear 59 15.1 43 6.1 55 55 ENE 5 7 30.13 1020 10 16 0.00 0.00
10:15 pm 22:15 Clear 56 13.6 43 6.2 61 61 E 5 7 30.14 1021 10 16 0.00 0.00
10:35 pm 22:35 Clear 59 15.1 42 5.6 53 53 E 6 9 30.13 1020 10 16 0.00 0.00
10:55 pm 22:55 Clear 59 15 42 5.5 53 53 ESE 3 6 30.14 1021 10 16 0.00 0.00
11:15 pm 23:15 Clear 56 13.5 43 6 61 61 ESE 3 6 30.16 1021 10 16 0.00 0.00
11:35 pm 23:35 Clear 56 13.5 41 5.1 57 57 E 7 11 30.15 1021 10 16 0.00 0.00
11:55 pm 23:55 Clear 56 13.1 41 5.2 59 59 E 8 13 30.16 1021 10 16 0.00 0.00

Powered by AerisWeather